Wind_Speed
2 1 2 4 6 6 7 6 6 5 5 5 4 4 2 1 3 5 5 6 2 3 2 4 3 4 6 7 7 7 5 1 5 6 7 8 7 7 8 8 10 11 9 10 16 22 23 24 27 29 30 30 29 29 28 27 25 23 23 23 24 23 21 21 20 20 20 19 16 13 11 10 9 8 7 7 7 6 5 4 4 4 4 3 3 3
3 0 6 8 9 7 5 4 5 5 5 4 4 3 2 0 3 4 4 6 3 4 2 4 1 3 6 6 7 5 5 4 4 7 8 10 10 9 10 11 9 7 5 7 11 17 19 19 23 25 28 31 31 31 31 29 27 25 25 24 25 25 24 23 22 22 21 20 17 15 13 11 9 7 6 6 6 4 3 4 4 4 3 3 3 3
4 4 10 9 5 3 2 3 6 5 5 4 2 2 2 2 3 6 5 6 4 3 3 4 3 5 7 6 7 5 4 6 5 6 7 8 9 8 9 9 8 6 5 7 9 13 17 18 21 24 27 30 32 32 32 30 28 28 27 26 26 26 26 26 24 22 20 19 17 15 14 12 10 8 6 6 5 3 3 3 4 3 1 1 1 2
2 6 9 3 6 5 1 3 5 4 3 3 3 2 2 3 1 3 5 6 4 3 0 0 2 5 7 5 7 6 4 5 6 5 6 8 9 10 11 9 9 10 9 10 10 11 14 15 19 23 26 27 28 30 33 31 30 30 30 29 28 28 28 28 25 21 19 18 16 14 14 13 11 9 8 6 5 4 3 3 3 2 1 0 2 4
6 9 4 5 6 6 3 1 4 5 1 2 2 4 3 3 3 4 4 6 5 5 3 4 4 5 4 4 6 5 4 5 6 6 5 6 8 9 9 8 8 10 12 13 12 11 10 15 21 24 25 26 27 31 35 35 34 33 32 31 30 31 30 29 26 22 20 18 16 16 15 13 11 10 9 7 5 5 4 4 3 2 0 1 4 5
8 7 1 3 3 5 5 4 3 6 2 4 3 6 6 5 4 2 3 5 5 5 4 4 2 5 4 4 7 5 5 5 5 6 8 7 5 6 8 9 9 9 10 10 12 13 14 18 21 21 23 25 28 33 36 37 35 34 34 33 32 32 31 29 26 23 21 19 19 20 19 17 14 12 10 6 5 5 4 4 3 2 2 2 4 4
5 4 1 2 4 4 5 5 5 6 4 2 5 7 6 5 5 3 1 4 2 3 4 2 3 5 5 4 7 5 5 8 8 6 9 9 5 6 8 9 11 11 11 9 10 12 14 17 17 18 25 29 31 33 32 33 35 35 35 34 33 33 32 29 27 25 23 21 22 23 22 19 17 15 12 7 5 5 4 4 3 3 3 4 4 4
3 5 5 1 2 4 4 4 5 7 7 3 5 6 7 6 6 5 5 4 2 3 3 4 3 2 4 5 7 5 5 8 9 9 9 10 9 8 8 10 11 12 13 11 11 12 13 16 19 23 29 33 32 30 29 33 35 36 36 35 34 33 32 29 27 26 24 24 26 25 22 19 17 15 12 9 8 6 5 5 4 4 4 4 5 5
1 3 4 2 3 3 5 5 7 8 4 6 5 6 5 4 6 5 6 4 1 1 3 6 2 1 4 7 6 4 3 8 9 11 11 11 11 9 9 10 11 12 14 13 14 15 14 18 24 28 31 33 31 30 32 35 36 36 36 35 33 32 31 30 27 26 26 27 28 25 22 19 17 15 13 11 10 8 7 6 5 5 5 5 5 4
3 5 6 5 4 4 6 5 8 10 4 5 5 5 4 4 5 4 5 3 2 3 3 6 0 1 4 7 5 3 2 7 8 9 9 11 12 8 8 9 9 10 11 13 15 15 18 24 28 28 28 28 29 29 31 32 33 34 35 35 34 32 31 30 27 27 28 29 28 25 22 19 18 17 15 14 13 11 10 8 7 6 6 5 5 4
4 3 4 4 4 6 6 4 5 8 5 3 5 5 5 5 4 3 3 3 3 2 5 6 4 4 1 6 4 2 4 5 5 8 9 10 11 9 8 7 8 10 9 11 12 13 17 20 19 19 21 22 23 23 25 28 31 33 35 35 34 33 32 30 28 30 31 30 29 26 22 20 19 19 18 17 16 15 13 11 9 7 6 6 5 4
6 2 2 3 3 4 3 1 2 1 3 5 5 4 2 3 4 4 4 3 1 4 6 6 4 5 1 5 5 4 6 5 5 8 10 12 13 10 7 3 4 8 10 11 10 10 11 10 11 16 18 19 21 22 25 28 29 30 34 36 35 33 33 31 31 32 33 31 29 26 23 21 21 21 21 20 19 17 16 13 11 9 8 7 6 5
4 4 3 5 3 4 4 1 3 6 5 5 4 5 4 1 3 2 3 1 2 5 4 4 2 2 3 7 7 7 8 7 5 6 8 10 12 11 7 2 1 1 5 9 9 9 8 8 11 16 19 21 24 27 29 30 30 32 35 36 36 35 35 34 33 34 34 32 30 27 24 23 22 22 22 22 21 18 16 15 12 11 10 9 8 7
3 5 5 3 4 1 5 4 1 2 1 3 4 4 4 2 2 1 3 1 2 4 3 3 2 2 3 4 5 7 8 7 5 5 4 5 8 9 9 5 4 4 2 3 6 8 9 10 12 16 21 24 27 30 31 32 32 33 34 36 38 37 36 36 35 36 35 33 32 28 26 25 24 24 24 23 22 20 18 16 14 12 11 10 9 8
1 4 3 2 3 1 3 5 6 5 3 3 3 5 4 4 3 3 3 2 3 3 3 3 2 2 2 2 5 6 6 5 4 3 6 9 10 9 10 9 7 5 5 3 3 5 6 9 14 19 22 24 27 30 32 33 33 33 33 36 37 37 37 38 37 37 36 35 33 30 28 27 26 25 25 25 24 22 20 18 16 14 12 11 9 8
2 4 6 3 2 1 3 3 6 6 2 3 2 5 2 4 5 2 2 4 3 1 2 2 2 3 4 2 6 5 4 5 4 6 11 11 10 12 12 11 9 7 5 5 3 1 3 4 9 15 20 24 28 29 30 32 33 33 34 36 37 38 39 39 39 39 38 36 35 32 30 29 28 27 26 26 26 24 22 19 17 15 13 11 10 9
1 5 6 3 3 1 2 2 2 4 2 1 1 2 3 3 6 4 1 0 3 1 3 1 2 5 2 2 6 6 7 8 8 10 12 9 9 13 10 8 9 9 7 5 4 4 2 1 5 9 13 17 22 26 32 35 37 38 37 37 37 36 36 38 39 39 39 38 36 34 32 30 30 29 28 28 27 25 23 21 19 17 15 13 11 11
3 3 6 1 1 3 1 3 5 3 3 4 2 4 2 1 4 4 1 3 4 1 4 1 2 4 2 1 5 8 9 9 9 9 9 9 10 11 8 7 7 7 9 8 6 4 3 4 6 9 11 12 13 18 25 32 36 38 37 36 36 35 36 39 39 39 39 38 37 36 34 32 31 30 29 28 27 26 25 23 21 19 16 14 13 13
3 2 7 2 3 4 4 5 3 6 3 4 4 2 2 1 1 1 2 1 0 2 3 3 3 3 3 4 1 4 4 5 7 7 8 9 9 7 6 7 7 7 9 9 8 7 5 3 2 9 13 13 14 16 18 21 23 26 29 32 34 36 38 39 39 39 39 39 38 37 35 33 32 31 30 29 27 27 26 25 23 21 19 16 16 15
1 2 5 4 2 3 5 3 2 3 5 4 2 3 2 2 3 0 1 2 2 2 2 3 3 2 5 5 5 4 3 2 3 4 5 6 6 6 6 6 7 7 8 7 7 7 7 9 9 3 9 16 17 17 17 17 18 22 25 27 29 33 34 34 35 37 37 39 39 37 36 35 33 33 32 30 29 28 27 26 24 23 21 19 18 17
2 2 3 5 4 2 2 1 4 3 0 2 3 3 2 1 2 0 0 2 3 2 2 1 2 4 5 3 6 6 5 4 3 4 3 2 3 4 6 7 7 7 7 7 7 8 8 11 16 16 8 7 14 15 15 16 19 22 22 24 27 28 28 30 34 36 38 40 40 38 37 36 35 33 32 31 29 28 27 26 25 24 23 21 20 19
1 2 2 3 4 1 2 4 4 5 4 3 2 1 2 2 2 1 2 1 1 2 3 3 2 5 5 2 3 5 5 5 5 3 4 3 4 4 5 6 6 6 7 7 8 8 8 11 16 20 18 11 4 9 13 15 17 19 21 24 25 25 26 30 33 35 37 37 38 39 39 37 36 34 32 31 29 28 27 26 25 25 24 23 21 20
2 3 2 2 4 3 6 7 4 1 4 6 2 2 3 3 4 4 3 3 0 1 2 4 2 5 5 4 3 4 4 4 3 2 4 5 5 5 5 5 5 6 6 6 7 7 7 11 16 19 21 20 17 11 6 11 16 20 22 24 24 25 27 28 28 30 31 30 31 34 36 36 35 34 32 31 29 27 26 25 24 24 24 23 21 19
1 2 2 2 4 4 5 5 3 3 6 7 2 2 3 2 3 5 5 3 1 2 1 2 2 4 5 5 4 4 4 4 4 5 6 5 5 5 6 5 5 6 6 7 7 7 9 14 17 18 20 20 22 22 17 11 11 17 22 23 25 27 28 27 27 29 31 31 30 28 29 31 33 33 32 31 28 26 25 23 23 23 23 22 20 18
1 0 2 2 3 5 7 5 4 5 3 4 1 1 2 3 5 3 1 3 1 3 4 4 4 5 4 3 5 6 7 7 7 7 6 5 5 6 6 6 6 6 7 8 9 9 10 12 13 15 18 19 21 22 23 22 16 12 17 22 25 27 29 28 28 29 31 33 32 29 26 26 27 29 31 30 27 25 23 22 22 22 21 19 17 16
2 1 3 3 2 3 2 2 3 3 1 1 2 2 1 2 4 2 1 3 1 3 3 5 4 5 3 2 5 5 5 7 7 6 6 4 4 4 5 6 6 6 7 8 8 7 7 8 9 12 16 19 20 21 21 22 23 20 14 16 21 25 28 29 29 29 29 30 31 30 28 26 25 26 28 28 26 24 22 21 21 21 19 16 15 14
2 0 2 5 5 6 6 7 6 3 2 2 2 3 3 1 3 4 3 2 3 3 3 5 5 6 6 2 4 4 4 4 5 5 5 5 5 5 4 4 4 5 5 5 5 5 6 7 8 10 13 17 20 23 22 21 22 22 20 15 15 20 24 26 29 30 29 30 31 31 32 32 30 29 29 28 26 24 22 21 21 19 17 15 14 13
4 2 2 4 5 7 7 7 6 4 4 5 4 4 5 4 4 5 4 4 4 3 5 6 5 6 6 2 3 4 1 1 2 3 4 4 5 6 5 5 5 6 6 6 6 6 7 6 6 9 13 16 19 22 24 24 24 23 22 20 16 15 20 22 24 27 29 28 29 30 32 34 34 34 33 31 28 25 23 22 21 19 17 15 14 12
4 2 3 2 5 6 5 7 5 4 5 5 5 6 6 7 6 6 6 6 6 6 8 7 6 7 5 2 3 5 3 4 4 4 5 4 4 5 4 4 6 6 7 7 7 6 6 6 6 8 13 16 18 20 23 24 26 26 25 24 22 16 16 20 23 26 28 28 27 27 28 30 34 35 35 33 30 27 25 23 21 19 17 15 13 12
2 2 2 1 4 6 6 7 6 5 5 4 6 8 8 8 9 8 7 6 8 9 10 6 6 8 5 4 4 3 3 4 4 3 3 2 3 3 3 5 5 6 6 6 6 6 5 5 5 7 11 15 17 19 20 22 24 25 25 25 26 25 19 18 24 27 28 31 32 33 32 33 35 36 36 34 32 30 27 25 22 20 17 15 14 13
2 1 2 2 3 6 6 5 4 5 6 7 7 7 6 7 7 6 5 4 5 8 8 4 4 7 5 4 4 2 3 3 3 4 4 3 3 3 4 5 5 5 6 6 6 6 5 5 5 6 9 12 15 17 17 19 22 25 26 25 27 28 24 17 22 27 30 32 33 33 34 34 34 36 35 34 33 31 29 27 25 21 18 16 15 14
1 1 2 4 2 6 4 4 6 5 6 8 8 6 6 7 6 5 4 5 6 6 4 2 3 6 5 3 2 2 4 4 4 5 5 4 3 2 3 4 4 5 6 6 6 6 6 6 5 7 9 13 16 17 17 18 21 24 26 27 28 29 25 18 20 26 29 29 28 28 29 27 28 31 34 35 35 33 31 29 27 22 20 18 17 16
3 2 1 2 3 7 5 4 6 4 5 10 8 9 10 9 7 4 3 6 7 7 5 4 5 6 5 4 4 3 4 4 5 5 4 3 3 2 1 3 5 6 6 6 7 7 7 7 8 9 13 16 18 19 20 20 20 23 26 28 29 28 25 19 19 24 26 24 25 28 30 29 29 30 33 35 34 33 32 31 27 23 21 20 18 17
4 4 3 3 3 7 6 2 1 2 7 9 6 9 12 11 10 7 5 7 6 4 3 4 4 4 5 6 6 6 6 5 5 6 5 4 5 5 5 5 5 6 6 6 7 7 7 9 12 14 16 18 20 22 24 24 23 24 26 27 28 27 24 20 19 23 24 23 25 29 31 32 34 35 36 36 34 33 33 30 25 22 20 20 19 18
3 4 3 2 3 4 2 2 1 6 7 4 1 2 5 7 9 8 4 4 4 3 3 4 5 6 6 6 6 6 6 6 6 7 7 6 6 6 5 6 6 6 6 7 7 7 8 11 13 16 18 20 21 23 25 28 28 28 28 27 26 26 23 20 20 22 24 25 26 26 25 26 27 28 31 34 33 33 32 27 23 21 21 20 19 17
5 3 2 2 2 2 0 3 6 6 4 4 4 4 3 1 4 4 1 5 4 4 5 5 4 5 4 5 5 5 5 4 5 6 7 8 7 6 5 6 6 6 6 7 7 9 12 14 16 18 20 22 23 24 26 29 30 30 30 28 25 23 22 20 21 23 23 24 25 25 24 24 21 20 23 30 31 30 28 24 21 21 21 20 18 16
5 3 2 2 3 2 3 4 3 4 6 6 4 2 1 1 1 1 3 5 5 2 4 4 3 5 4 4 5 5 3 1 3 6 6 7 8 7 6 7 7 8 9 11 12 14 16 19 19 20 21 22 24 25 27 29 30 29 30 29 24 21 21 20 22 24 24 25 26 25 24 24 24 22 24 29 30 28 25 21 19 20 21 20 18 15
2 4 4 3 2 2 3 4 3 3 6 5 4 4 2 3 5 5 4 1 4 4 2 4 4 6 5 5 6 4 1 2 3 6 6 7 8 7 6 7 9 11 12 13 15 17 18 20 20 21 22 22 24 26 27 29 29 28 29 28 23 20 20 20 23 25 25 26 27 26 25 25 28 29 30 29 27 23 20 17 17 19 20 19 16 13
3 0 3 3 2 1 3 4 3 3 5 4 5 7 6 5 6 3 4 1 5 5 3 4 5 6 6 6 5 2 2 4 5 5 5 7 7 6 6 7 9 12 14 15 15 17 19 20 21 21 22 22 24 27 27 28 28 27 27 26 22 19 20 21 23 26 27 27 28 28 28 29 32 34 35 31 23 18 16 16 18 18 17 15 12 11
5 4 2 2 3 2 2 3 3 2 2 2 4 6 6 6 4 3 2 4 5 5 4 5 6 7 6 5 4 1 1 4 6 5 5 5 6 7 8 8 9 11 14 16 16 16 17 19 20 22 22 23 25 27 27 27 27 26 26 25 22 20 21 22 23 27 29 27 28 29 29 30 32 33 32 27 19 17 19 20 19 17 15 13 11 10
3 3 2 1 2 2 2 3 3 2 2 3 4 6 6 5 4 3 3 5 4 5 4 4 6 6 5 4 3 3 4 6 7 7 5 5 7 9 10 12 14 14 14 15 16 16 17 19 21 22 25 27 27 27 27 26 25 25 25 24 23 23 22 21 23 26 26 24 27 30 32 34 35 33 31 27 24 23 22 19 16 13 12 11 11 11
2 2 2 1 0 1 2 2 2 3 3 3 4 4 3 3 2 2 4 3 3 5 5 3 5 5 4 5 5 5 6 8 9 9 8 6 7 9 10 13 15 16 15 15 15 15 17 20 22 23 25 27 27 26 26 25 25 25 24 23 25 26 23 21 23 25 25 24 26 29 32 35 35 32 30 28 26 24 20 15 13 11 11 10 11 11
1 2 3 1 1 1 1 0 2 2 3 2 2 3 3 2 2 4 3 2 3 4 4 4 4 4 4 5 6 6 8 9 10 11 11 8 7 8 10 11 12 15 17 17 17 18 18 20 23 25 26 26 25 26 26 24 24 24 23 23 27 27 23 21 23 25 26 26 27 29 31 34 34 31 29 27 24 21 18 15 14 13 12 11 12 13
1 1 1 2 1 0 0 2 3 3 3 2 1 1 3 4 4 3 1 2 4 3 3 4 5 5 5 5 7 8 9 9 10 11 12 12 10 9 10 12 13 15 18 20 21 22 22 22 24 25 26 26 25 26 26 25 24 23 23 25 27 25 20 20 24 26 28 29 31 32 32 33 31 29 28 25 21 19 19 18 16 15 13 13 13 13
2 2 3 3 3 2 4 5 4 3 2 2 3 3 6 6 4 4 5 4 4 3 4 4 5 7 6 6 7 8 8 9 11 11 11 12 12 10 11 14 15 17 20 22 23 24 24 24 24 25 26 26 26 26 26 25 24 23 25 27 26 22 18 22 26 27 27 28 31 33 33 32 31 30 28 25 22 20 21 21 18 14 12 10 9 9
4 2 2 2 3 3 3 4 4 3 4 3 3 5 6 5 4 4 4 5 5 5 5 5 6 7 7 7 7 7 9 10 11 11 11 11 11 11 12 14 16 18 20 20 23 25 25 24 24 24 24 25 26 25 25 23 22 24 26 28 25 20 20 26 29 30 32 33 31 30 31 33 33 32 28 25 23 21 18 17 15 11 7 6 5 6
3 1 1 1 4 4 3 4 4 5 6 7 7 7 5 4 5 4 4 5 5 5 5 6 7 7 7 8 8 9 11 11 11 11 11 10 11 11 10 11 14 17 18 20 23 25 24 21 20 21 22 23 24 23 22 22 22 23 24 24 22 21 25 30 31 32 35 38 35 32 31 32 32 29 26 24 23 20 15 11 8 6 4 4 4 4
3 1 1 3 4 4 4 6 7 7 7 7 6 6 4 5 6 6 5 5 6 7 7 7 7 7 7 8 9 9 11 12 11 10 10 9 10 10 9 10 14 17 18 21 24 24 22 20 19 20 21 21 20 19 20 21 20 20 20 20 21 25 30 33 34 32 32 34 36 35 33 31 29 27 24 21 18 15 12 9 7 6 5 3 2 2
3 3 3 3 3 4 6 7 6 7 8 6 6 6 5 6 7 7 6 7 7 8 9 9 9 8 8 9 9 8 10 11 10 10 11 11 9 9 10 12 16 18 19 22 23 22 21 20 20 21 20 19 18 18 17 15 11 10 14 20 27 30 30 31 34 34 32 31 32 32 32 30 28 26 23 19 15 13 11 8 8 7 6 3 2 1
2 4 5 3 4 5 6 6 5 4 6 7 6 6 7 7 6 7 8 8 8 9 9 10 10 9 9 10 10 8 9 11 10 10 11 10 9 10 12 15 16 18 20 22 22 22 21 20 20 20 17 16 18 18 13 7 0 8 15 21 29 34 34 34 35 33 31 29 28 28 28 27 25 24 21 19 17 14 11 10 9 7 5 4 2 2
4 5 5 4 5 6 8 8 6 4 7 9 8 7 7 6 6 9 10 9 9 10 9 8 10 10 9 10 11 10 9 10 10 11 10 10 12 14 16 17 17 18 20 22 21 20 20 19 18 16 14 16 19 16 8 2 6 14 18 22 29 35 37 36 32 28 27 28 28 28 27 26 25 24 22 18 16 13 11 11 10 7 5 4 2 3
Wind_Direction
95 63 280 219 228 234 230 206 181 175 146 129 113 118 119 105 295 288 274 300 12 101 319 255 234 293 276 282 284 290 342 342 191 166 181 202 203 200 196 192 190 195 196 185 184 187 187 183 179 177 175 174 172 172 174 172 171 169 171 177 179 178 174 170 164 158 155 153 151 151 149 144 141 143 151 163 172 179 187 190 189 185 174 167 164 158
63 117 252 227 219 221 221 191 147 117 93 93 114 103 20 219 268 278 258 305 349 113 301 302 21 298 274 270 280 303 331 300 215 180 190 200 206 205 200 199 192 186 160 155 180 190 189 185 182 180 176 174 173 174 176 173 170 170 172 176 177 177 177 174 169 164 161 160 158 157 154 150 143 140 144 151 156 163 177 184 186 192 195 188 177 164
6 269 255 237 198 161 123 108 105 97 88 79 101 85 347 265 285 298 289 312 358 97 291 324 20 290 275 271 279 287 263 258 239 201 193 195 211 221 211 203 181 164 158 164 181 192 191 186 182 182 180 179 178 176 176 174 171 170 172 175 175 175 176 176 174 171 169 167 167 164 157 150 142 139 140 141 142 135 134 154 165 172 186 206 184 153
308 254 247 200 133 131 95 83 98 101 91 84 111 116 274 269 304 290 298 318 346 45 240 21 20 298 296 302 279 271 253 271 284 252 203 180 199 216 212 206 186 176 178 181 187 191 186 180 184 188 186 183 181 177 176 176 174 172 174 175 175 173 173 176 178 178 177 176 176 176 168 156 148 150 153 155 165 174 169 163 168 177 200 276 146 134
254 254 229 110 129 157 166 129 122 140 219 294 175 156 198 232 210 221 280 329 345 5 45 74 19 317 316 318 285 301 338 309 308 305 268 206 198 208 209 209 202 192 188 186 186 184 179 184 191 192 188 185 184 181 180 181 177 174 177 178 176 174 174 177 180 182 186 185 185 185 177 165 159 160 164 170 181 192 197 189 185 176 78 114 148 137
263 265 185 146 190 165 169 215 197 171 213 306 248 198 191 193 202 233 337 18 25 346 345 51 13 294 315 317 274 297 339 307 311 319 284 258 203 185 201 206 201 201 201 194 186 183 188 194 192 187 187 189 190 189 187 184 179 177 179 181 179 178 177 179 183 188 193 193 187 183 179 174 171 173 176 177 179 189 198 196 190 145 92 98 150 159
265 294 13 216 214 163 175 230 227 169 138 312 247 200 174 143 133 150 129 83 95 261 300 48 152 255 316 317 267 285 317 297 301 302 280 278 251 191 200 205 197 196 197 196 196 193 195 193 184 183 191 194 196 195 190 184 181 180 182 183 183 182 181 182 187 193 199 196 187 184 183 182 182 183 181 177 177 185 200 206 195 158 120 102 130 156
260 320 347 344 144 145 176 231 221 148 121 238 234 161 141 131 142 164 150 137 192 236 316 14 110 209 304 277 263 298 314 291 293 287 274 274 263 229 211 209 200 195 189 187 195 198 200 194 187 190 195 197 197 195 190 185 185 185 185 186 187 186 185 186 190 197 202 197 188 187 188 188 191 192 183 178 181 186 202 212 196 172 159 136 134 148
246 292 277 203 110 151 198 214 190 143 132 240 208 140 145 148 150 143 127 149 223 75 308 322 44 147 280 271 287 343 310 279 278 274 273 270 265 245 221 212 202 197 190 186 191 195 198 197 196 197 196 197 197 195 192 189 188 188 188 189 191 191 189 189 194 200 201 195 190 189 192 192 195 195 186 182 186 190 197 202 189 175 171 166 157 156
240 229 211 158 134 202 228 218 174 159 188 231 152 108 62 68 93 98 114 143 57 61 245 269 250 154 272 278 301 3 271 262 265 268 269 269 270 259 235 218 194 191 193 192 194 195 199 200 199 199 196 196 197 196 194 190 189 190 190 192 194 194 193 192 196 198 195 193 191 192 194 196 196 193 189 189 192 196 196 193 187 179 172 173 176 175
282 260 176 156 179 203 207 193 172 174 175 135 102 76 35 31 42 47 76 103 65 330 252 245 199 140 311 282 254 204 221 233 261 283 287 288 293 288 264 230 180 178 187 196 199 198 201 199 194 192 191 193 196 196 193 191 193 192 191 194 196 197 196 195 197 196 193 193 195 195 196 199 198 195 194 194 195 198 197 192 187 183 179 178 186 195
328 320 202 244 221 168 158 136 31 18 87 92 85 76 64 339 11 19 357 41 100 263 260 242 197 118 103 268 253 250 261 254 250 274 292 301 305 306 293 262 187 184 182 185 194 198 192 179 173 180 183 187 191 194 195 195 196 194 193 195 198 199 199 198 197 197 197 197 198 199 199 201 200 200 201 200 200 201 199 194 188 186 186 186 188 198
319 244 265 304 263 146 131 145 355 2 32 82 96 83 85 330 5 349 299 334 208 251 257 227 193 114 231 252 264 272 280 283 268 272 296 304 311 320 323 327 92 166 190 184 184 185 181 176 178 178 176 181 189 195 198 198 197 197 196 197 198 201 201 199 198 199 201 202 201 201 202 202 201 203 206 207 208 207 204 198 195 194 193 193 194 196
324 301 327 335 286 169 132 156 228 312 69 137 143 121 125 120 60 279 269 290 254 266 276 235 213 281 282 274 278 277 286 305 323 325 343 4 360 354 351 8 77 89 111 196 194 183 183 190 188 182 181 185 191 196 198 199 200 199 197 198 199 201 202 200 199 202 205 206 205 203 203 203 202 205 209 212 215 214 210 207 207 209 207 204 205 200
117 306 295 198 271 322 126 160 169 158 163 200 173 130 140 153 153 225 227 201 247 275 303 291 226 188 215 274 290 288 299 335 5 10 47 51 40 34 24 22 46 79 101 125 204 215 210 203 193 188 188 191 195 197 198 200 201 200 199 200 200 201 202 202 201 203 205 208 208 206 205 205 205 207 210 214 219 220 215 213 213 216 216 216 216 211
151 251 257 257 289 81 117 187 159 123 98 264 166 108 150 183 156 178 195 176 190 261 309 286 235 220 204 263 322 328 348 15 34 48 51 42 38 50 39 26 35 45 73 107 123 236 291 265 223 203 196 197 197 197 199 202 203 203 202 202 202 202 203 203 203 204 206 209 210 208 207 206 206 208 210 213 218 221 219 217 218 219 220 222 222 218
145 266 282 316 334 37 151 226 160 127 154 242 95 150 230 187 126 119 252 337 84 105 278 266 254 292 334 20 344 2 25 16 17 41 48 33 34 51 42 21 33 39 47 74 108 135 140 208 248 240 226 216 207 201 201 203 204 206 205 203 203 203 204 205 205 205 207 209 210 210 209 208 208 208 210 212 215 219 219 219 221 222 220 221 222 222
147 257 292 339 244 289 87 74 33 30 126 118 150 220 230 52 87 109 131 8 46 180 276 294 226 282 336 295 325 5 27 14 3 19 36 33 34 42 35 18 20 34 46 50 59 77 113 154 200 236 251 254 243 225 215 211 210 209 207 205 203 203 205 206 206 207 208 209 210 211 211 211 211 211 212 213 215 218 219 218 218 218 218 219 222 224
124 235 288 271 201 287 8 69 25 341 23 108 158 188 108 105 301 24 98 127 62 232 280 309 277 254 226 215 305 20 27 15 357 360 22 32 30 23 20 22 15 24 42 42 41 41 41 62 204 228 233 243 249 247 240 233 227 220 214 210 207 206 208 208 207 207 208 210 212 213 213 213 214 214 214 214 215 217 219 218 217 215 216 218 220 222
61 146 274 283 237 298 2 61 188 308 346 26 60 33 41 135 158 125 115 161 191 216 247 302 314 274 234 202 151 152 182 131 42 23 27 22 14 3 360 13 17 23 38 41 38 33 28 29 24 330 240 235 234 238 244 242 238 233 227 221 215 212 211 209 208 208 209 211 213 214 214 215 215 215 215 215 216 218 218 218 217 215 214 215 218 219
37 97 247 294 317 312 344 174 177 176 306 17 34 21 3 48 102 95 360 122 143 172 191 230 285 270 257 212 157 163 181 172 143 87 59 28 24 5 344 354 7 17 28 35 40 35 26 28 30 30 14 263 238 235 238 238 238 239 236 231 226 220 214 212 211 210 211 213 213 213 214 214 215 215 215 217 218 218 217 216 215 214 212 212 214 215
61 123 198 294 326 305 253 247 203 176 166 148 138 149 152 140 109 95 295 302 109 160 176 162 227 268 270 253 186 169 176 197 184 122 59 26 38 34 2 355 2 16 24 26 33 36 31 28 30 35 37 26 315 252 239 236 239 242 239 236 233 228 222 218 214 213 214 214 213 214 214 214 214 213 213 215 217 216 214 213 213 211 210 209 209 210
142 103 117 262 261 229 250 264 267 184 124 112 111 139 130 124 113 128 210 253 311 217 163 126 178 270 275 278 261 219 214 226 204 114 55 27 20 36 43 32 24 26 27 27 33 37 36 32 29 30 34 32 23 6 300 253 243 242 241 238 235 234 231 224 217 215 216 217 218 218 215 213 212 210 209 211 213 213 212 212 210 209 208 206 204 205
94 71 58 302 293 304 300 295 324 26 85 88 43 44 96 117 126 144 177 175 177 232 156 124 228 262 274 285 296 293 304 335 359 18 35 34 13 20 41 52 53 45 33 30 31 31 33 33 29 25 23 22 22 21 13 344 281 252 243 237 233 234 234 228 221 219 217 216 220 222 219 215 211 207 206 208 210 211 210 209 207 206 204 202 200 200
310 325 93 46 335 333 340 348 342 338 40 96 81 17 67 98 98 93 101 99 168 230 167 168 233 239 239 297 339 342 348 356 354 0 19 29 13 9 18 27 37 43 39 33 27 24 26 26 23 20 16 13 13 15 15 11 355 306 260 242 234 233 233 228 224 223 220 216 215 216 217 216 212 206 204 205 207 208 208 207 204 202 200 199 199 198
234 196 143 142 199 229 266 274 256 280 326 115 133 118 87 98 109 133 102 96 180 245 170 169 227 258 256 334 342 336 4 1 345 355 8 8 5 2 11 20 26 34 35 32 29 26 23 20 19 18 13 8 6 5 4 7 7 357 323 270 244 235 232 228 225 225 223 218 212 209 209 209 210 209 205 204 204 204 204 203 201 198 197 198 199 199
129 80 176 165 187 203 206 224 222 181 185 253 212 161 171 165 123 118 108 136 187 211 236 206 205 261 278 306 324 326 20 7 332 348 350 338 345 355 10 19 20 33 37 35 36 29 21 15 11 12 11 7 3 360 357 356 359 2 355 325 278 250 236 229 226 224 222 219 214 209 206 205 205 205 206 205 202 199 197 197 196 195 194 197 199 201
87 345 273 174 213 226 211 224 226 179 193 231 225 184 179 187 153 129 161 214 173 159 261 247 195 228 255 236 284 295 323 200 274 300 302 310 333 341 351 3 10 19 20 22 25 20 16 10 358 359 3 4 2 357 355 352 350 351 353 349 330 280 248 236 229 224 221 219 215 210 207 204 202 201 202 203 199 193 190 189 190 191 192 194 197 202
101 281 263 197 258 263 239 240 238 206 208 215 207 196 184 187 187 184 208 210 164 181 246 240 193 215 229 190 243 260 218 197 215 241 261 290 318 321 341 7 15 12 5 9 10 3 1 357 352 353 351 352 356 354 351 349 346 344 343 345 345 325 275 249 236 227 221 216 213 213 211 207 204 200 196 194 191 186 184 184 185 187 189 192 196 203
113 275 269 237 291 294 275 261 248 232 236 229 219 213 195 191 198 204 218 207 185 213 243 230 209 232 232 200 223 251 251 233 236 255 276 298 308 323 17 21 11 1 355 356 349 340 339 332 328 338 343 344 346 345 344 341 339 337 335 335 339 339 320 271 241 230 223 218 216 218 216 211 204 196 189 187 185 182 180 181 183 185 187 192 197 200
47 289 306 21 341 296 290 290 263 232 235 242 244 231 197 190 205 219 230 202 194 237 258 250 240 257 252 221 221 279 315 309 321 324 319 322 330 16 38 19 359 345 336 332 326 320 315 309 315 327 332 332 331 331 332 332 331 330 329 329 330 333 333 298 250 233 226 224 221 217 212 207 198 189 186 184 181 180 179 179 181 183 187 191 194 196
54 269 331 35 328 275 280 301 291 277 266 259 247 217 190 191 201 211 216 196 187 204 227 236 250 250 241 221 220 303 326 330 318 302 301 313 329 33 43 359 333 314 307 309 310 312 314 316 323 324 321 321 321 320 320 321 324 323 323 325 324 327 329 307 261 239 230 225 219 210 203 199 190 186 187 186 181 180 180 179 178 180 185 190 193 195
162 189 217 129 259 270 251 252 288 311 285 269 241 191 189 206 207 194 215 222 198 163 157 197 230 221 186 157 166 221 266 277 270 260 255 273 273 232 241 289 287 283 287 296 301 306 310 310 309 309 311 313 313 314 315 316 316 316 318 319 319 323 324 304 265 242 231 222 212 205 200 195 190 189 190 187 182 180 178 176 175 177 185 191 193 194
168 178 204 170 211 266 255 220 347 279 243 255 233 182 188 203 202 192 205 217 203 166 157 185 196 180 160 154 167 195 219 230 238 241 235 224 215 216 233 249 262 276 283 286 290 293 294 297 301 303 304 307 309 312 314 314 312 312 314 315 315 318 318 299 264 239 227 216 206 202 199 197 196 196 192 186 182 180 176 173 172 177 186 191 191 190
208 186 214 183 190 255 279 98 222 248 241 250 276 193 199 191 172 167 203 229 208 201 189 157 155 168 178 188 188 193 214 229 243 253 247 224 204 201 222 249 260 268 276 281 283 283 284 288 294 298 302 305 309 311 311 313 314 312 313 312 310 313 312 292 262 239 224 212 204 201 199 198 202 201 191 181 178 177 173 169 171 178 187 192 191 189
215 195 205 194 193 247 97 161 211 250 292 309 323 356 358 18 101 100 303 284 257 211 183 172 194 208 204 217 220 212 226 254 277 270 248 227 214 201 205 235 252 251 256 264 266 272 283 288 289 292 298 302 305 306 306 308 310 310 310 308 304 305 306 286 257 238 222 210 205 204 203 201 202 202 187 173 169 169 168 168 173 181 187 188 185 184
192 176 200 224 216 194 191 213 245 307 316 299 300 358 38 237 268 215 244 277 285 245 164 160 225 265 258 251 253 244 237 323 311 283 254 226 220 219 218 228 240 246 254 262 268 274 282 288 290 292 295 297 297 299 300 303 306 305 305 303 297 296 298 279 251 234 219 208 203 201 200 195 189 184 174 165 163 165 166 170 177 183 186 183 179 181
177 176 184 204 221 176 199 253 288 290 272 261 274 296 278 230 246 223 179 295 300 276 195 172 221 253 247 253 265 263 317 8 293 277 269 246 234 235 243 248 249 253 259 266 276 282 285 288 290 292 293 293 292 294 297 298 301 300 298 296 291 289 288 271 247 231 218 207 200 194 189 185 179 171 163 158 157 157 160 173 185 187 186 183 183 189
11 343 149 167 232 151 175 230 240 229 240 245 270 292 305 300 282 230 141 186 285 276 243 216 237 250 239 235 241 228 18 334 292 270 254 244 242 240 249 264 267 267 269 272 274 279 283 288 290 290 289 286 286 291 295 294 294 293 290 289 287 282 277 265 246 229 217 208 198 189 184 181 175 165 156 151 148 149 165 187 191 186 185 189 194 204
13 4 63 155 243 232 174 229 243 223 243 263 280 293 304 316 339 58 137 250 270 270 242 213 231 250 239 230 232 218 274 278 277 271 244 238 261 265 261 269 271 267 273 278 278 278 281 285 287 285 285 284 285 289 292 289 288 285 282 283 283 274 267 264 249 231 219 206 193 185 180 173 165 154 147 147 153 164 178 186 182 179 186 196 206 216
358 344 26 123 233 246 217 243 269 265 263 276 279 284 301 336 32 85 205 236 259 283 266 211 223 250 246 236 243 242 244 250 266 281 280 280 291 288 280 282 283 280 278 279 282 285 284 283 283 283 285 287 288 288 286 283 280 277 276 279 277 268 265 267 254 232 214 199 187 180 174 166 159 152 151 160 171 172 171 171 171 181 197 206 216 223
348 336 338 49 83 267 202 215 290 293 258 252 266 280 333 21 47 210 235 236 246 283 286 250 246 263 264 259 255 250 261 274 283 289 290 283 278 281 287 291 294 295 292 285 284 286 286 288 289 288 288 290 291 288 285 279 272 271 272 272 269 268 270 268 250 224 205 192 182 174 167 162 157 153 154 162 165 161 159 164 176 191 201 209 220 227
279 306 303 261 219 329 35 306 301 279 242 247 316 344 9 13 244 247 276 285 262 272 284 277 264 252 243 257 266 266 275 286 289 291 292 284 269 272 281 285 287 291 292 291 289 290 292 293 292 291 291 292 293 290 285 277 270 269 269 266 267 273 275 262 236 210 193 183 172 165 160 155 151 151 154 157 159 158 161 172 184 194 203 213 222 228
224 201 257 257 233 94 140 232 228 214 215 196 122 354 290 268 249 225 214 272 281 268 245 251 264 256 243 254 272 279 284 287 286 288 292 290 285 283 284 284 283 285 288 289 292 296 298 293 288 288 290 292 293 291 286 278 271 267 265 266 270 276 272 246 216 194 181 173 164 157 149 143 144 150 153 155 160 165 171 179 188 196 208 218 224 229
231 193 192 225 244 213 207 229 242 246 245 198 173 230 258 256 238 198 189 225 263 249 209 219 258 265 258 258 268 277 280 279 280 281 281 282 284 283 282 284 283 282 283 286 289 294 294 288 284 285 287 290 293 291 286 279 270 264 263 265 268 268 250 217 194 178 168 160 153 147 144 144 151 156 156 159 166 174 182 190 196 201 209 217 223 234
264 274 147 189 269 289 266 257 264 278 292 297 279 268 264 250 228 213 213 232 244 238 225 225 243 255 261 262 262 266 267 267 272 274 273 275 278 277 275 277 277 276 277 280 285 288 288 285 283 283 285 290 292 289 284 280 272 265 262 260 259 250 222 195 177 165 157 150 147 149 152 155 157 157 157 163 171 177 184 192 197 200 205 207 213 234
282 327 89 224 274 300 295 281 288 293 295 303 301 289 277 260 247 238 236 246 253 255 252 248 248 254 259 257 253 256 262 264 267 272 274 275 275 275 274 273 274 275 274 276 281 285 284 282 281 282 285 288 288 285 281 280 277 270 263 256 244 222 197 180 167 159 154 151 152 157 159 157 155 155 160 169 178 182 178 170 170 178 182 186 207 237
275 338 333 243 236 237 246 264 286 292 284 277 272 265 256 258 264 260 251 255 267 272 268 261 256 255 257 257 253 253 262 268 269 271 274 274 271 273 273 269 272 276 278 280 281 280 279 278 279 282 283 283 283 284 284 285 282 271 255 235 210 191 179 169 160 152 149 150 152 155 155 154 154 157 162 169 175 174 164 151 148 152 156 163 190 256
257 291 281 252 260 277 270 268 281 294 292 276 255 245 240 242 251 255 254 257 262 265 267 265 258 250 249 256 258 256 262 269 268 266 270 272 272 271 271 274 278 280 280 281 281 278 277 278 279 281 281 281 283 287 290 293 287 249 211 187 171 163 157 151 145 140 138 141 146 150 152 154 158 161 162 157 145 137 141 151 157 156 154 143 117 7
217 250 253 259 282 277 265 264 264 275 287 281 261 249 251 248 247 255 263 266 263 260 263 268 268 261 253 254 257 256 259 266 267 265 268 269 268 270 275 280 283 282 281 281 280 279 279 278 278 279 278 280 288 291 289 295 29 140 147 145 141 138 133 130 131 134 138 144 149 153 154 154 156 156 151 138 129 130 141 153 156 152 139 122 98 2
190 225 231 234 251 253 259 269 265 248 269 275 266 254 252 250 253 262 267 270 270 268 266 268 273 276 271 263 258 251 250 263 270 268 269 271 274 278 282 282 281 280 281 282 282 281 280 279 279 277 275 283 291 287 267 227 122 126 128 126 126 127 129 133 138 142 147 151 154 155 152 146 141 138 134 131 134 144 154 159 161 154 122 100 78 355
Height
767 773 779 779 776 773 771 773 774 775 776 777 778 780 783 784 778 773 768 764 766 770 772 773 771 768 765 762 759 757 758 758 760 763 764 766 767 767 769 769 770 770 769 770 773 775 776 778 779 779 781 782 784 785 786 787 789 791 793 796 798 800 802 803 803 804 805 807 808 810 811 812 812 813 813 814 814 815 815 815 816 816 816 816 816 816
770 778 779 773 771 771 771 775 776 776 777 776 777 778 782 784 778 772 768 766 767 769 773 775 769 766 764 760 758 757 756 755 756 761 764 764 765 764 765 767 768 769 770 772 774 776 777 779 779 780 781 781 782 784 785 786 788 790 793 795 797 798 801 802 804 805 805 806 808 809 811 811 812 813 813 814 814 815 815 815 816 816 816 817 817 817
777 778 771 768 774 776 776 778 776 775 775 776 778 779 780 782 779 773 768 767 769 767 771 773 769 765 762 760 758 757 756 754 754 758 761 763 765 766 765 765 768 770 771 772 773 775 776 777 779 780 780 780 781 782 784 786 787 789 792 794 797 798 800 802 803 805 806 806 808 809 811 812 813 813 814 814 814 815 815 816 816 817 817 817 817 817
783 773 765 770 775 774 775 778 776 775 776 776 778 779 781 783 783 778 771 768 769 769 771 772 771 769 763 759 757 756 759 756 754 755 758 761 761 762 763 763 766 768 768 770 771 772 775 777 779 778 778 780 781 782 783 785 786 788 791 793 796 797 799 801 803 804 806 807 808 809 811 812 813 813 814 814 815 815 815 816 817 817 817 817 818 818
778 767 765 771 772 771 773 777 778 775 776 778 777 777 778 778 779 779 776 771 770 773 774 772 775 774 768 765 758 756 763 759 755 755 754 757 758 759 761 762 764 765 764 766 767 770 773 774 774 775 777 779 780 781 780 781 783 786 789 792 795 796 798 800 802 804 805 806 807 808 810 812 813 813 814 814 814 815 815 816 817 817 817 818 818 818
772 765 766 769 770 772 772 774 775 774 777 780 776 772 772 773 776 779 779 778 778 780 778 779 785 782 774 772 764 758 761 758 757 758 752 752 757 759 760 760 761 763 763 764 764 766 768 769 771 774 777 778 778 778 778 779 781 785 788 791 793 795 797 799 801 803 804 805 806 807 809 810 811 812 813 814 814 815 815 816 817 817 817 818 818 818
769 763 764 767 770 773 774 775 774 773 780 782 773 768 771 774 777 780 780 782 786 787 784 783 789 788 779 772 764 760 761 757 756 757 753 750 753 756 757 756 757 758 761 763 764 764 765 767 771 773 774 774 774 776 778 780 782 784 787 790 792 794 795 798 800 801 803 804 805 805 806 808 810 811 812 813 814 815 816 816 817 817 817 818 818 818
768 763 764 768 771 775 777 775 772 771 777 778 770 767 771 773 775 778 779 781 785 785 785 785 786 791 788 773 764 766 766 760 755 754 752 750 750 752 753 752 753 753 755 759 762 763 763 765 767 768 769 770 772 775 778 780 781 784 787 789 792 793 795 796 798 800 801 802 804 804 805 807 808 810 812 813 814 815 815 816 817 817 818 818 818 818
769 764 763 767 772 776 772 766 766 769 771 769 767 769 771 771 774 776 778 782 788 788 786 787 788 795 794 775 767 773 770 763 758 752 750 747 745 747 748 748 749 750 751 753 756 758 759 762 763 763 765 768 771 774 775 777 780 783 786 789 791 793 794 795 797 799 800 801 802 803 804 806 808 810 811 812 813 814 815 816 817 817 818 818 818 819
766 762 761 765 769 770 763 760 762 763 764 764 766 771 771 774 778 780 781 782 789 793 787 785 789 795 793 776 770 776 771 764 758 751 749 745 742 742 742 743 746 748 750 750 751 752 753 755 758 761 765 768 771 773 775 778 780 783 786 788 790 792 793 795 796 798 799 800 801 802 803 804 806 808 810 811 812 814 815 815 816 817 817 818 818 819
762 759 760 761 761 759 755 759 764 761 761 764 767 770 772 778 780 782 787 785 790 795 788 788 790 791 791 777 769 771 765 760 757 753 750 744 740 740 739 740 743 744 747 749 749 750 751 755 759 763 767 770 772 774 777 778 780 782 784 786 788 791 792 793 795 797 798 799 800 801 802 803 805 807 809 810 811 813 814 815 815 816 817 818 818 819
765 761 760 755 752 754 754 759 765 764 763 765 768 772 777 783 783 785 788 788 794 796 788 790 790 787 790 777 765 765 761 759 760 757 752 745 741 740 740 742 742 742 744 745 748 750 753 757 761 764 766 769 772 774 776 777 779 781 783 785 787 789 791 792 794 796 797 798 799 800 800 802 803 805 807 808 810 811 812 814 815 816 816 817 818 819
764 759 760 755 750 752 755 762 768 767 767 769 770 776 785 793 795 795 794 796 799 794 789 793 790 787 786 771 762 762 759 759 761 759 756 752 747 743 742 742 742 745 746 745 747 749 753 756 758 760 763 766 768 770 772 774 776 778 780 782 784 785 788 790 792 794 795 797 798 798 799 800 802 804 806 807 808 810 812 813 814 815 816 816 817 818
767 762 760 757 752 749 753 763 769 769 770 770 769 774 785 798 806 805 805 809 803 791 792 797 792 788 781 769 767 765 761 760 760 758 756 754 751 748 746 743 741 744 748 748 748 749 751 752 754 757 760 762 764 766 769 771 773 775 777 779 780 783 785 788 789 792 794 795 796 797 798 799 801 802 804 806 807 809 811 812 813 814 815 816 817 818
777 773 761 757 756 752 751 757 762 765 768 771 771 773 778 786 795 799 799 800 796 791 793 793 788 784 778 773 773 768 764 762 758 757 754 751 751 749 748 747 744 744 746 750 752 751 751 751 752 754 756 758 761 763 766 768 770 773 774 776 778 780 783 785 787 789 791 794 795 796 796 797 798 800 802 804 806 808 809 811 812 813 814 815 816 817
780 774 759 756 756 751 752 754 754 758 767 774 774 773 775 773 777 790 798 796 794 793 792 790 785 781 776 773 771 769 765 763 760 757 754 754 753 750 750 751 750 749 748 749 752 754 754 754 755 755 756 756 758 760 763 765 768 770 771 773 775 777 780 782 784 786 788 791 793 794 795 795 797 798 800 802 804 806 808 809 811 812 813 814 816 817
779 772 760 758 757 752 754 753 750 754 763 773 774 771 774 771 769 784 800 803 801 797 795 795 786 776 776 774 770 770 767 765 764 759 757 760 757 753 755 756 754 753 751 751 751 753 754 755 757 758 758 758 758 759 760 761 763 765 767 770 772 776 778 780 782 784 786 789 791 793 794 794 796 797 798 800 802 804 806 808 809 810 812 813 814 816
774 772 762 760 758 753 754 754 751 753 757 766 773 769 771 774 772 778 791 800 805 803 798 796 790 781 781 779 773 772 770 769 769 765 762 762 759 758 760 759 758 755 752 752 752 753 753 754 755 757 759 761 762 762 761 760 761 762 764 767 770 773 775 776 779 781 784 786 789 791 792 793 794 795 797 799 801 803 805 806 808 809 811 812 813 815
771 772 766 762 761 756 753 755 758 759 757 759 765 767 771 778 780 782 790 795 801 806 800 794 795 790 783 779 776 775 774 772 773 772 768 765 764 765 764 761 761 757 753 753 753 754 754 754 754 756 757 759 761 763 764 765 767 767 767 768 769 771 772 774 777 779 782 784 786 789 790 792 793 794 796 798 800 801 803 804 806 808 809 811 812 813
773 776 771 764 764 762 757 760 765 766 764 760 762 768 772 776 782 786 790 791 792 801 803 795 794 787 777 776 775 774 775 774 774 774 772 771 769 768 767 764 762 759 756 755 755 755 755 755 755 755 756 758 759 761 763 766 768 769 770 770 770 771 772 774 776 777 779 781 783 786 788 790 792 793 795 797 798 799 801 803 805 806 808 810 811 812
773 778 777 768 765 767 766 767 769 769 769 767 767 773 775 778 784 786 788 791 789 794 800 799 794 783 776 777 774 772 775 774 772 771 771 773 773 772 771 768 765 763 760 757 756 757 757 757 756 755 756 757 758 760 762 764 767 768 770 771 771 772 773 773 774 775 777 778 780 782 784 786 789 791 794 796 797 798 799 801 803 804 807 808 810 811
773 777 779 774 770 772 772 770 768 768 770 769 769 774 777 778 782 787 792 795 792 790 796 800 795 782 779 781 776 774 775 773 772 770 769 771 773 775 776 774 771 767 764 761 759 759 759 758 758 758 758 759 759 760 760 762 765 767 768 770 771 773 773 772 772 773 775 777 778 779 781 783 786 788 791 794 796 797 798 800 801 803 805 807 808 810
773 777 779 777 775 776 776 772 771 771 769 769 773 777 779 778 780 786 791 792 792 793 797 801 797 787 784 784 778 776 775 773 773 772 770 772 773 775 777 776 775 772 769 768 765 763 763 762 762 761 760 760 760 760 761 762 763 764 766 768 770 772 772 771 772 773 776 778 780 780 780 781 783 786 789 792 794 796 798 799 801 803 804 806 808 809
774 777 779 780 778 775 772 770 773 773 770 773 779 780 780 780 780 783 787 789 791 792 793 797 797 790 785 784 780 777 774 771 773 772 772 775 774 774 776 775 776 774 771 770 768 766 766 764 763 763 761 762 761 760 761 762 763 763 763 765 767 768 769 770 771 772 773 775 777 780 782 781 782 784 786 790 792 795 798 799 801 803 804 806 808 809
775 779 782 786 788 784 779 776 776 773 772 778 783 783 781 780 782 786 790 793 793 793 791 791 790 785 786 787 782 779 777 775 776 777 775 776 776 775 776 775 775 774 772 771 770 768 767 766 766 765 764 764 763 762 762 762 763 763 763 763 763 764 766 768 769 770 771 770 772 775 779 782 784 784 786 788 791 794 797 799 801 803 804 806 808 809
776 782 783 785 792 795 791 787 780 775 777 783 786 786 782 781 782 784 788 792 794 797 795 789 784 781 785 789 784 781 784 781 779 781 779 778 779 778 778 778 778 777 776 775 774 773 772 771 770 769 768 766 765 765 764 764 763 763 762 763 763 762 763 765 767 769 770 770 769 770 773 777 782 785 786 787 789 792 795 798 800 802 804 806 807 808
779 784 782 780 784 786 783 780 778 778 778 780 783 785 785 784 783 783 788 791 791 793 792 786 783 780 782 786 783 781 786 785 782 782 780 779 780 779 779 780 779 779 779 778 778 777 776 774 772 772 771 769 767 766 765 765 765 764 763 763 762 763 762 763 764 765 767 767 767 766 768 770 773 779 783 785 786 789 792 795 798 800 802 804 805 807
782 784 783 781 779 778 777 774 775 777 776 775 778 783 784 784 782 783 787 788 788 792 790 783 781 780 780 783 782 782 787 787 785 783 781 781 781 780 781 781 780 779 779 778 778 777 776 775 773 772 771 770 769 767 766 765 764 764 764 763 763 763 763 763 763 763 764 766 766 765 765 766 767 770 775 780 783 785 788 791 794 797 800 801 803 805
787 785 785 786 779 776 779 779 777 777 776 775 777 780 782 783 783 784 785 785 788 789 784 778 778 778 780 784 784 784 787 787 786 785 784 784 785 784 784 782 781 780 779 778 778 777 776 775 773 772 771 770 769 768 767 765 764 763 763 762 762 762 762 762 762 762 762 762 763 764 765 767 767 766 768 772 777 780 783 787 791 794 796 799 801 802
787 786 787 788 782 778 779 780 781 780 777 777 777 777 780 781 780 782 783 784 786 783 776 779 784 781 781 785 785 786 788 788 787 787 786 786 786 785 783 782 782 782 780 779 779 778 777 776 775 774 772 771 770 768 767 766 765 764 763 762 761 760 760 760 759 759 759 758 758 759 760 764 765 765 765 768 772 776 778 782 787 790 793 796 798 800
787 789 789 786 786 784 778 777 781 782 780 779 778 777 779 781 781 784 784 784 786 783 778 783 788 784 784 787 786 787 789 787 784 783 783 784 785 783 782 782 783 782 780 780 779 778 777 776 775 774 772 771 770 769 768 767 766 765 763 762 761 759 758 758 757 757 756 755 756 756 758 760 761 763 764 766 769 772 774 777 781 786 789 792 795 798
789 793 790 787 792 789 779 777 779 778 780 781 780 780 780 777 777 779 779 779 779 777 778 782 782 779 784 788 788 788 789 786 783 782 781 783 784 783 782 782 782 781 780 779 777 775 775 774 773 773 771 770 769 768 768 767 766 765 763 761 760 758 757 756 755 755 754 754 755 756 758 760 762 764 765 765 766 767 770 773 777 781 786 789 792 795
788 789 788 791 796 790 781 780 778 779 783 779 773 774 774 771 773 776 775 776 774 772 774 775 772 773 783 789 788 788 790 787 784 782 781 782 784 782 781 781 780 779 778 777 775 773 772 772 772 771 770 769 768 766 766 766 765 763 762 760 758 757 755 754 753 753 753 753 753 754 755 758 761 763 765 766 766 765 768 771 774 778 783 787 791 792
788 788 788 790 792 787 781 781 785 789 787 773 762 764 765 763 767 771 769 769 771 774 775 774 774 778 784 785 784 786 787 785 782 781 781 782 782 780 780 780 779 778 777 775 774 773 772 771 770 770 769 768 766 765 763 763 762 761 760 758 756 754 753 752 751 750 750 751 751 752 753 754 756 758 760 762 765 767 768 770 773 778 783 787 790 791
790 791 792 790 790 790 786 786 793 792 777 763 762 768 768 763 762 765 766 768 773 777 777 776 778 781 782 781 782 784 784 783 782 781 780 780 779 778 777 777 776 776 775 774 773 772 771 770 769 768 767 766 765 764 762 760 759 758 757 756 755 753 752 750 749 748 748 748 750 751 753 754 756 757 758 759 762 766 768 769 773 778 783 786 788 790
789 792 793 791 791 793 791 791 794 785 769 762 765 770 773 770 767 767 769 772 778 780 776 775 778 780 781 782 783 783 783 784 784 780 778 777 776 775 774 774 774 774 773 772 771 770 769 768 767 766 765 764 763 762 761 759 757 756 754 753 752 751 750 748 747 746 746 746 747 749 751 753 755 759 761 760 763 768 770 771 774 778 782 785 787 789
788 790 791 791 790 790 789 789 787 780 773 769 770 776 782 781 778 776 772 773 780 783 780 778 778 779 780 780 780 782 784 786 783 777 773 774 774 773 772 771 771 771 770 769 768 768 767 766 765 764 763 762 761 760 759 757 756 754 751 750 750 749 748 746 745 744 744 744 744 746 748 750 752 757 760 760 763 768 771 774 776 778 781 784 786 788
785 787 787 789 790 787 788 790 790 786 783 780 780 785 786 786 788 786 778 778 781 782 781 780 778 778 779 779 780 782 783 782 778 773 770 771 771 771 770 769 769 769 768 767 766 765 764 764 763 762 761 760 758 758 756 754 753 751 749 747 747 747 745 744 742 742 742 742 742 743 746 748 750 753 756 759 764 768 771 775 777 779 781 783 785 786
783 786 787 788 789 788 788 791 790 785 785 788 788 785 783 787 787 779 775 781 783 781 782 783 779 778 778 777 779 781 780 778 774 771 769 768 768 769 769 768 767 766 765 765 764 763 762 761 760 759 758 757 755 754 753 752 750 748 745 744 745 744 742 740 740 740 740 740 740 742 743 745 747 749 751 756 762 767 771 774 778 779 781 783 784 784
784 786 788 789 790 789 789 790 787 784 786 790 788 784 784 785 781 776 779 785 784 781 782 783 779 777 776 776 778 778 775 774 771 768 767 767 767 767 766 765 764 763 762 762 761 761 760 759 757 756 754 753 751 750 750 748 746 744 742 741 742 740 738 738 737 738 738 739 740 741 742 744 747 748 749 755 763 767 771 774 776 779 780 781 782 783
791 790 792 792 792 791 792 792 789 786 789 789 785 783 783 780 780 784 788 785 782 780 780 780 778 775 774 775 776 774 770 769 767 765 766 767 766 764 763 762 761 760 760 759 758 758 757 755 754 752 749 748 747 746 746 745 743 740 738 738 737 735 735 735 736 736 738 739 739 740 741 743 746 747 749 756 763 767 770 772 775 777 779 780 781 782
799 798 797 796 795 795 796 796 793 790 789 788 785 783 783 784 787 789 785 781 780 779 777 777 776 774 774 773 773 772 769 768 766 765 765 766 765 763 761 760 758 757 756 756 755 754 753 751 748 746 744 743 742 742 741 741 739 736 735 734 732 731 732 733 733 734 736 738 738 739 740 742 744 747 750 757 762 765 768 771 774 776 777 778 780 781
801 802 802 799 796 798 799 799 797 793 788 786 785 785 785 788 788 784 779 779 780 778 777 777 775 774 774 773 771 771 770 768 767 764 763 763 763 761 759 757 756 754 752 751 751 750 749 746 743 741 739 738 738 737 737 737 734 732 732 730 727 728 730 730 731 732 733 735 737 738 740 741 743 748 753 758 762 765 768 770 772 774 776 777 778 779
799 801 805 802 798 801 802 797 791 788 785 784 785 786 786 785 782 780 780 780 778 777 777 776 774 773 773 772 771 770 768 767 765 763 761 759 758 758 756 754 753 751 749 747 746 745 745 742 739 737 735 734 734 733 732 732 730 728 727 725 724 725 726 727 728 730 731 733 735 737 739 741 745 750 754 758 762 765 767 769 771 772 774 775 777 778
799 797 801 801 797 797 796 791 785 783 783 783 784 783 782 780 779 779 780 779 777 777 776 775 773 772 771 771 771 769 768 766 764 762 760 757 755 755 754 751 750 749 747 745 743 742 741 739 736 733 731 730 730 729 727 727 726 723 721 720 721 722 723 724 726 728 730 733 735 736 739 742 746 750 754 758 763 765 767 768 770 771 773 774 776 777
798 797 799 799 797 794 791 787 785 784 783 782 782 781 779 778 778 777 777 776 775 774 773 773 772 770 769 770 770 769 767 765 762 760 758 756 754 752 751 749 747 746 745 742 741 739 737 736 734 731 728 726 725 724 723 722 721 718 716 716 717 718 720 721 724 726 729 732 735 739 743 745 747 750 754 758 761 764 766 768 769 771 772 773 774 775
799 799 801 799 799 798 793 786 783 783 783 782 782 780 777 777 776 776 776 775 773 772 771 771 770 769 769 769 768 766 764 762 760 759 756 754 752 749 747 746 744 742 742 740 738 736 734 732 731 728 725 723 721 720 719 717 716 714 712 712 713 714 716 719 721 724 726 729 735 742 746 747 747 750 754 757 760 763 766 767 769 770 771 772 773 774
801 801 802 799 797 797 793 786 783 783 783 782 781 779 777 776 776 775 775 774 773 772 771 769 769 768 767 766 765 764 762 759 758 756 753 751 749 746 744 742 740 739 738 736 734 733 731 729 727 724 722 720 718 717 716 714 712 710 708 708 708 710 713 716 718 723 727 731 735 740 744 746 748 750 754 757 760 763 765 767 768 770 770 771 772 772
801 802 800 797 797 796 793 788 786 785 782 779 778 778 776 776 775 774 773 773 772 771 769 768 767 766 764 762 761 761 759 756 755 754 751 748 745 742 740 738 736 735 733 731 730 728 726 724 722 720 718 717 715 715 714 712 710 707 705 705 705 707 711 715 718 723 729 733 736 739 742 745 748 750 754 757 761 763 765 767 768 769 770 770 771 771
802 802 799 799 801 799 792 786 785 786 784 778 776 776 775 774 774 772 771 771 770 768 767 766 763 762 761 760 758 758 756 753 751 750 748 744 741 739 736 734 732 731 728 727 725 723 722 720 718 717 715 714 714 713 713 712 710 708 706 706 706 707 711 717 721 726 731 735 739 741 742 745 748 751 755 758 761 763 765 767 768 768 769 769 770 770
798 796 794 795 797 792 786 782 783 785 782 776 774 774 774 773 773 771 769 768 766 765 764 763 761 759 758 756 755 754 752 749 747 746 743 740 737 735 733 731 729 726 724 722 721 719 717 716 714 714 713 712 712 712 712 712 712 711 711 712 712 713 716 721 725 729 733 737 739 741 743 745 748 752 756 758 761 763 765 766 766 767 768 768 769 769